Time,TemperatureF,DewpointF,PressureIn,WindDirection,WindDirectionDegrees,WindSpeedMPH,WindSpeedGustMPH,Humidity,HourlyPrecipIn,Conditions,Clouds,dailyrainin,SoftwareType,DateUTC
2013-06-16 00:02:00,65.0,63.0,-100.00,SSW,205,2.0,4.0,90,-99.99,,,-99.99,,2013-06-16 04:02:00,
2013-06-16 00:12:00,65.0,63.0,-100.00,SSW,195,3.0,6.0,91,-99.99,,,-99.99,,2013-06-16 04:12:00,
2013-06-16 00:23:00,65.0,63.0,-100.00,South,190,2.0,6.0,91,-99.99,,,-99.99,,2013-06-16 04:23:00,
2013-06-16 00:34:00,65.0,62.0,-100.00,South,185,3.0,6.0,91,-99.99,,,-99.99,,2013-06-16 04:34:00,
2013-06-16 00:42:00,65.0,62.0,-100.00,South,190,4.0,6.0,91,-99.99,,,-99.99,,2013-06-16 04:42:00,
2013-06-16 00:53:00,65.0,62.0,-100.00,South,175,4.0,6.0,92,-99.99,,,-99.99,,2013-06-16 04:53:00,
2013-06-16 01:02:00,64.0,62.0,-100.00,South,170,3.0,6.0,92,-99.99,,,-99.99,,2013-06-16 05:02:00,
2013-06-16 01:12:00,64.0,62.0,-100.00,SSW,195,2.0,5.0,92,-99.99,,,-99.99,,2013-06-16 05:12:00,
2013-06-16 01:22:00,64.0,62.0,-100.00,South,175,2.0,6.0,92,-99.99,,,-99.99,,2013-06-16 05:22:00,
2013-06-16 01:34:00,64.0,62.0,-100.00,SW,215,2.0,4.0,93,-99.99,,,-99.99,,2013-06-16 05:34:00,
2013-06-16 01:43:00,64.0,62.0,-100.00,SSW,205,3.0,4.0,93,-99.99,,,-99.99,,2013-06-16 05:43:00,
2013-06-16 01:52:00,64.0,62.0,-100.00,SW,215,3.0,6.0,93,-99.99,,,-99.99,,2013-06-16 05:52:00,
2013-06-16 02:01:00,64.0,62.0,-100.00,SW,225,4.0,7.0,93,-99.99,,,-99.99,,2013-06-16 06:01:00,
2013-06-16 02:11:00,64.0,62.0,-100.00,SW,220,3.0,8.0,93,-99.99,,,-99.99,,2013-06-16 06:11:00,
2013-06-16 02:22:00,64.0,62.0,-100.00,SSW,195,3.0,7.0,93,-99.99,,,-99.99,,2013-06-16 06:22:00,
2013-06-16 02:33:00,64.0,62.0,-100.00,SSW,195,3.0,9.0,93,-99.99,,,-99.99,,2013-06-16 06:33:00,
2013-06-16 02:43:00,64.0,63.0,-100.00,SSW,210,5.0,10.0,93,-99.99,,,-99.99,,2013-06-16 06:43:00,
2013-06-16 02:52:00,65.0,63.0,-100.00,West,280,6.0,7.0,93,-99.99,,,-99.99,,2013-06-16 06:52:00,
2013-06-16 03:01:00,64.0,63.0,-100.00,WSW,245,4.0,8.0,93,-99.99,,,-99.99,,2013-06-16 07:01:00,
2013-06-16 03:12:00,64.0,63.0,-100.00,SW,220,4.0,9.0,94,-99.99,,,-99.99,,2013-06-16 07:12:00,
2013-06-16 03:22:00,64.0,63.0,-100.00,SW,220,2.0,6.0,94,-99.99,,,-99.99,,2013-06-16 07:22:00,
2013-06-16 03:33:00,64.0,63.0,-100.00,SW,215,4.0,6.0,95,-99.99,,,-99.99,,2013-06-16 07:33:00,
2013-06-16 03:43:00,64.0,63.0,-100.00,West,265,2.0,5.0,95,-99.99,,,-99.99,,2013-06-16 07:43:00,
2013-06-16 03:53:00,64.0,63.0,-100.00,SW,225,1.0,3.0,95,-99.99,,,-99.99,,2013-06-16 07:53:00,
2013-06-16 04:02:00,64.0,63.0,-100.00,SSW,210,1.0,3.0,95,-99.99,,,-99.99,,2013-06-16 08:02:00,
2013-06-16 04:12:00,64.0,63.0,-100.00,SW,235,1.0,4.0,95,-99.99,,,-99.99,,2013-06-16 08:12:00,
2013-06-16 04:22:00,64.0,63.0,-100.00,SSW,195,2.0,6.0,95,-99.99,,,-99.99,,2013-06-16 08:22:00,
2013-06-16 04:33:00,65.0,63.0,-100.00,West,265,1.0,5.0,95,-99.99,,,-99.99,,2013-06-16 08:33:00,
2013-06-16 04:43:00,65.0,63.0,-100.00,SW,235,2.0,6.0,95,-99.99,,,-99.99,,2013-06-16 08:43:00,
2013-06-16 04:54:00,65.0,64.0,-100.00,West,275,5.0,11.0,95,-99.99,,,-99.99,,2013-06-16 08:54:00,
2013-06-16 05:02:00,66.0,64.0,-100.00,WNW,290,7.0,14.0,95,-99.99,,,-99.99,,2013-06-16 09:02:00,
2013-06-16 05:11:00,66.0,65.0,-100.00,West,265,7.0,12.0,95,-99.99,,,-99.99,,2013-06-16 09:11:00,
2013-06-16 05:22:00,66.0,65.0,-100.00,West,265,5.0,15.0,95,-99.99,,,-99.99,,2013-06-16 09:22:00,
2013-06-16 05:33:00,66.0,65.0,-100.00,West,270,7.0,12.0,95,-99.99,,,-99.99,,2013-06-16 09:33:00,
2013-06-16 05:43:00,67.0,65.0,-100.00,West,275,9.0,16.0,95,-99.99,,,-99.99,,2013-06-16 09:43:00,
2013-06-16 05:52:00,67.0,65.0,-100.00,WNW,285,11.0,15.0,95,-99.99,,,-99.99,,2013-06-16 09:52:00,
2013-06-16 06:02:00,67.0,65.0,-100.00,West,280,11.0,17.0,94,-99.99,,,-99.99,,2013-06-16 10:02:00,
2013-06-16 06:12:00,67.0,65.0,-100.00,WSW,245,6.0,14.0,93,-99.99,,,-99.99,,2013-06-16 10:12:00,
2013-06-16 06:22:00,67.0,65.0,-100.00,WSW,245,4.0,14.0,93,-99.99,,,-99.99,,2013-06-16 10:22:00,
2013-06-16 06:33:00,67.0,65.0,-100.00,SW,230,4.0,11.0,93,-99.99,,,-99.99,,2013-06-16 10:33:00,
2013-06-16 06:43:00,67.0,65.0,-100.00,WSW,250,4.0,12.0,93,-99.99,,,-99.99,,2013-06-16 10:43:00,
2013-06-16 06:53:00,67.0,65.0,-100.00,West,265,4.0,10.0,93,-99.99,,,-99.99,,2013-06-16 10:53:00,
2013-06-16 07:02:00,66.0,64.0,-100.00,SW,215,2.0,9.0,93,-99.99,,,-99.99,,2013-06-16 11:02:00,
2013-06-16 07:12:00,66.0,64.0,-100.00,WSW,240,4.0,9.0,93,-99.99,,,-99.99,,2013-06-16 11:12:00,
2013-06-16 07:22:00,67.0,65.0,-100.00,SW,215,3.0,8.0,93,-99.99,,,-99.99,,2013-06-16 11:22:00,
2013-06-16 07:34:00,67.0,65.0,-100.00,SSW,205,2.0,9.0,93,-99.99,,,-99.99,,2013-06-16 11:34:00,
2013-06-16 07:43:00,67.0,65.0,-100.00,WSW,240,3.0,7.0,93,-99.99,,,-99.99,,2013-06-16 11:43:00,
2013-06-16 07:52:00,67.0,65.0,-100.00,West,260,2.0,11.0,93,-99.99,,,-99.99,,2013-06-16 11:52:00,
2013-06-16 08:02:00,67.0,65.0,-100.00,SW,220,2.0,10.0,93,-99.99,,,-99.99,,2013-06-16 12:02:00,
2013-06-16 08:12:00,67.0,65.0,-100.00,WSW,250,3.0,9.0,93,-99.99,,,-99.99,,2013-06-16 12:12:00,
2013-06-16 08:22:00,68.0,66.0,-100.00,WSW,250,4.0,9.0,93,-99.99,,,-99.99,,2013-06-16 12:22:00,
2013-06-16 08:33:00,68.0,66.0,-100.00,West,270,4.0,9.0,93,-99.99,,,-99.99,,2013-06-16 12:33:00,
2013-06-16 08:42:00,68.0,66.0,-100.00,WSW,245,5.0,11.0,93,-99.99,,,-99.99,,2013-06-16 12:42:00,
2013-06-16 08:53:00,68.0,66.0,-100.00,WSW,245,4.0,11.0,92,-99.99,,,-99.99,,2013-06-16 12:53:00,
2013-06-16 09:01:00,68.0,65.0,-100.00,West,280,6.0,14.0,91,-99.99,,,-99.99,,2013-06-16 13:01:00,
2013-06-16 09:11:00,68.0,65.0,-100.00,WNW,285,6.0,14.0,89,-99.99,,,-99.99,,2013-06-16 13:11:00,
2013-06-16 09:22:00,70.0,65.0,-100.00,WNW,295,3.0,16.0,86,-99.99,,,-99.99,,2013-06-16 13:22:00,
2013-06-16 09:34:00,71.0,66.0,-100.00,West,265,5.0,13.0,84,-99.99,,,-99.99,,2013-06-16 13:34:00,
2013-06-16 09:43:00,70.0,65.0,-100.00,West,260,5.0,16.0,82,-99.99,,,-99.99,,2013-06-16 13:43:00,
2013-06-16 09:53:00,70.0,65.0,-100.00,West,265,4.0,17.0,82,-99.99,,,-99.99,,2013-06-16 13:53:00,
2013-06-16 10:02:00,70.0,65.0,-100.00,West,275,6.0,13.0,82,-99.99,,,-99.99,,2013-06-16 14:02:00,
2013-06-16 10:12:00,71.0,64.0,-100.00,WNW,285,10.0,16.0,80,-99.99,,,-99.99,,2013-06-16 14:12:00,
2013-06-16 10:22:00,71.0,64.0,-100.00,West,280,12.0,20.0,79,-99.99,,,-99.99,,2013-06-16 14:22:00,
2013-06-16 10:34:00,71.0,64.0,-100.00,WNW,285,9.0,21.0,78,-99.99,,,-99.99,,2013-06-16 14:34:00,
2013-06-16 10:43:00,72.0,65.0,-100.00,West,275,8.0,16.0,77,-99.99,,,-99.99,,2013-06-16 14:43:00,
2013-06-16 10:52:00,73.0,65.0,-100.00,WSW,255,7.0,18.0,75,-99.99,,,-99.99,,2013-06-16 14:52:00,
2013-06-16 11:02:00,73.0,65.0,-100.00,West,275,9.0,18.0,74,-99.99,,,-99.99,,2013-06-16 15:02:00,
2013-06-16 11:12:00,73.0,65.0,-100.00,WNW,285,9.0,17.0,73,-99.99,,,-99.99,,2013-06-16 15:12:00,
2013-06-16 11:23:00,73.0,64.0,-100.00,West,280,11.0,16.0,73,-99.99,,,-99.99,,2013-06-16 15:23:00,
2013-06-16 11:34:00,73.0,64.0,-100.00,WNW,285,9.0,16.0,73,-99.99,,,-99.99,,2013-06-16 15:34:00,
2013-06-16 11:43:00,74.0,64.0,-100.00,WNW,290,11.0,21.0,70,-99.99,,,-99.99,,2013-06-16 15:43:00,
2013-06-16 11:52:00,74.0,64.0,-100.00,WNW,290,11.0,21.0,70,-99.99,,,-99.99,,2013-06-16 15:52:00,
2013-06-16 12:02:00,74.0,64.0,-100.00,West,280,11.0,19.0,69,-99.99,,,-99.99,,2013-06-16 16:02:00,
2013-06-16 12:12:00,75.0,63.0,-100.00,West,280,14.0,18.0,66,-99.99,,,-99.99,,2013-06-16 16:12:00,
2013-06-16 12:23:00,75.0,64.0,-100.00,West,280,7.0,18.0,68,-99.99,,,-99.99,,2013-06-16 16:23:00,
2013-06-16 12:33:00,76.0,64.0,-100.00,WNW,290,9.0,17.0,66,-99.99,,,-99.99,,2013-06-16 16:33:00,
2013-06-16 12:43:00,76.0,64.0,-100.00,West,280,12.0,16.0,66,-99.99,,,-99.99,,2013-06-16 16:43:00,
2013-06-16 12:53:00,76.0,64.0,-100.00,WNW,295,6.0,15.0,66,-99.99,,,-99.99,,2013-06-16 16:53:00,
2013-06-16 13:02:00,77.0,64.0,-100.00,West,280,10.0,18.0,63,-99.99,,,-99.99,,2013-06-16 17:02:00,
2013-06-16 13:12:00,77.0,64.0,-100.00,WNW,290,12.0,17.0,62,-99.99,,,-99.99,,2013-06-16 17:12:00,
2013-06-16 13:22:00,76.0,63.0,-100.00,West,280,13.0,17.0,63,-99.99,,,-99.99,,2013-06-16 17:22:00,
2013-06-16 13:34:00,78.0,64.0,-100.00,West,275,9.0,19.0,61,-99.99,,,-99.99,,2013-06-16 17:34:00,
2013-06-16 13:43:00,79.0,64.0,-100.00,West,275,4.0,15.0,60,-99.99,,,-99.99,,2013-06-16 17:43:00,
2013-06-16 13:53:00,79.0,64.0,-100.00,WNW,300,11.0,17.0,60,-99.99,,,-99.99,,2013-06-16 17:53:00,
2013-06-16 14:02:00,79.0,64.0,-100.00,West,270,6.0,19.0,60,-99.99,,,-99.99,,2013-06-16 18:02:00,
2013-06-16 14:12:00,80.0,65.0,-100.00,WSW,240,3.0,14.0,61,-99.99,,,-99.99,,2013-06-16 18:12:00,
2013-06-16 14:22:00,81.0,65.0,-100.00,West,265,6.0,12.0,59,-99.99,,,-99.99,,2013-06-16 18:22:00,
2013-06-16 14:33:00,81.0,65.0,-100.00,West,265,6.0,14.0,58,-99.99,,,-99.99,,2013-06-16 18:33:00,
2013-06-16 14:43:00,81.0,65.0,-100.00,WNW,285,7.0,12.0,58,-99.99,,,-99.99,,2013-06-16 18:43:00,
2013-06-16 14:52:00,81.0,63.0,-100.00,WNW,290,11.0,17.0,55,-99.99,,,-99.99,,2013-06-16 18:52:00,
2013-06-16 15:01:00,80.0,64.0,-100.00,West,270,4.0,15.0,58,-99.99,,,-99.99,,2013-06-16 19:01:00,
2013-06-16 15:11:00,81.0,64.0,-100.00,West,275,7.0,14.0,56,-99.99,,,-99.99,,2013-06-16 19:11:00,
2013-06-16 15:22:00,82.0,65.0,-100.00,SW,235,5.0,12.0,56,-99.99,,,-99.99,,2013-06-16 19:22:00,
2013-06-16 15:34:00,81.0,64.0,-100.00,West,275,6.0,16.0,56,-99.99,,,-99.99,,2013-06-16 19:34:00,
2013-06-16 15:43:00,81.0,62.0,-100.00,WNW,285,7.0,16.0,53,-99.99,,,-99.99,,2013-06-16 19:43:00,
2013-06-16 15:53:00,81.0,64.0,-100.00,WSW,255,6.0,13.0,55,-99.99,,,-99.99,,2013-06-16 19:53:00,
2013-06-16 16:02:00,82.0,63.0,-100.00,West,275,4.0,17.0,53,-99.99,,,-99.99,,2013-06-16 20:02:00,
2013-06-16 16:12:00,82.0,63.0,-100.00,West,270,8.0,14.0,53,-99.99,,,-99.99,,2013-06-16 20:12:00,
2013-06-16 16:22:00,82.0,63.0,-100.00,WNW,295,9.0,20.0,52,-99.99,,,-99.99,,2013-06-16 20:22:00,
2013-06-16 16:33:00,82.0,63.0,-100.00,WSW,255,5.0,11.0,54,-99.99,,,-99.99,,2013-06-16 20:33:00,
2013-06-16 16:42:00,82.0,64.0,-100.00,West,275,6.0,14.0,54,-99.99,,,-99.99,,2013-06-16 20:42:00,
2013-06-16 16:53:00,81.0,63.0,-100.00,West,270,6.0,16.0,54,-99.99,,,-99.99,,2013-06-16 20:53:00,
2013-06-16 17:02:00,80.0,62.0,-100.00,West,280,9.0,18.0,54,-99.99,,,-99.99,,2013-06-16 21:02:00,
2013-06-16 17:11:00,81.0,63.0,-100.00,WSW,255,6.0,17.0,54,-99.99,,,-99.99,,2013-06-16 21:11:00,
2013-06-16 17:22:00,80.0,62.0,-100.00,West,280,9.0,14.0,53,-99.99,,,-99.99,,2013-06-16 21:22:00,
2013-06-16 17:33:00,80.0,62.0,-100.00,West,270,9.0,17.0,54,-99.99,,,-99.99,,2013-06-16 21:33:00,
2013-06-16 17:42:00,79.0,62.0,-100.00,West,280,9.0,15.0,55,-99.99,,,-99.99,,2013-06-16 21:42:00,
2013-06-16 17:53:00,79.0,62.0,-100.00,WNW,295,12.0,18.0,54,-99.99,,,-99.99,,2013-06-16 21:53:00,
2013-06-16 18:01:00,80.0,63.0,-100.00,West,280,7.0,17.0,55,-99.99,,,-99.99,,2013-06-16 22:01:00,
2013-06-16 18:12:00,82.0,63.0,-100.00,West,280,11.0,16.0,53,-99.99,,,-99.99,,2013-06-16 22:12:00,
2013-06-16 18:22:00,82.0,63.0,-100.00,WNW,285,11.0,17.0,53,-99.99,,,-99.99,,2013-06-16 22:22:00,
2013-06-16 18:32:00,81.0,62.0,-100.00,West,280,11.0,17.0,51,-99.99,,,-99.99,,2013-06-16 22:32:00,
2013-06-16 18:42:00,81.0,62.0,-100.00,WNW,295,9.0,14.0,53,-99.99,,,-99.99,,2013-06-16 22:42:00,
2013-06-16 18:52:00,80.0,62.0,-100.00,WNW,295,9.0,14.0,52,-99.99,,,-99.99,,2013-06-16 22:52:00,
2013-06-16 19:02:00,81.0,61.0,-100.00,West,270,8.0,16.0,52,-99.99,,,-99.99,,2013-06-16 23:02:00,
2013-06-16 19:11:00,81.0,61.0,-100.00,NW,305,7.0,15.0,51,-99.99,,,-99.99,,2013-06-16 23:11:00,
2013-06-16 19:22:00,80.0,60.0,-100.00,WNW,295,11.0,16.0,51,-99.99,,,-99.99,,2013-06-16 23:22:00,
2013-06-16 19:32:00,80.0,60.0,-100.00,WNW,290,10.0,16.0,50,-99.99,,,-99.99,,2013-06-16 23:32:00,
2013-06-16 19:42:00,80.0,59.0,-100.00,WNW,295,10.0,16.0,49,-99.99,,,-99.99,,2013-06-16 23:42:00,
2013-06-16 19:52:00,80.0,59.0,-100.00,NW,310,5.0,14.0,49,-99.99,,,-99.99,,2013-06-16 23:52:00,
2013-06-16 20:02:00,80.0,59.0,-100.00,WNW,300,6.0,12.0,49,-99.99,,,-99.99,,2013-06-17 00:02:00,
2013-06-16 20:11:00,79.0,59.0,-100.00,NW,305,6.0,11.0,49,-99.99,,,-99.99,,2013-06-17 00:11:00,
2013-06-16 20:22:00,79.0,58.0,-100.00,NW,305,6.0,10.0,49,-99.99,,,-99.99,,2013-06-17 00:22:00,
2013-06-16 20:32:00,78.0,57.0,-100.00,NW,305,6.0,11.0,48,-99.99,,,-99.99,,2013-06-17 00:32:00,
2013-06-16 20:43:00,78.0,56.0,-100.00,WNW,300,4.0,10.0,48,-99.99,,,-99.99,,2013-06-17 00:43:00,
2013-06-16 20:52:00,77.0,56.0,-100.00,NW,320,4.0,9.0,48,-99.99,,,-99.99,,2013-06-17 00:52:00,
2013-06-16 21:02:00,76.0,56.0,-100.00,NW,305,2.0,5.0,50,-99.99,,,-99.99,,2013-06-17 01:02:00,
2013-06-16 21:12:00,76.0,56.0,-100.00,NW,310,3.0,5.0,50,-99.99,,,-99.99,,2013-06-17 01:12:00,
2013-06-16 21:22:00,75.0,56.0,-100.00,NW,310,3.0,6.0,52,-99.99,,,-99.99,,2013-06-17 01:22:00,
2013-06-16 21:32:00,74.0,56.0,-100.00,WNW,300,2.0,4.0,54,-99.99,,,-99.99,,2013-06-17 01:32:00,
2013-06-16 21:43:00,72.0,56.0,-100.00,NNW,330,2.0,3.0,56,-99.99,,,-99.99,,2013-06-17 01:43:00,
2013-06-16 21:53:00,71.0,56.0,-100.00,NNW,340,1.0,3.0,58,-99.99,,,-99.99,,2013-06-17 01:53:00,
2013-06-16 22:02:00,70.0,57.0,-100.00,WNW,295,2.0,2.0,62,-99.99,,,-99.99,,2013-06-17 02:02:00,
2013-06-16 22:12:00,69.0,57.0,-100.00,NW,310,2.0,3.0,66,-99.99,,,-99.99,,2013-06-17 02:12:00,
2013-06-16 22:22:00,68.0,58.0,-100.00,WNW,295,1.0,3.0,69,-99.99,,,-99.99,,2013-06-17 02:22:00,
2013-06-16 22:34:00,66.0,58.0,-100.00,West,275,1.0,3.0,74,-99.99,,,-99.99,,2013-06-17 02:34:00,
2013-06-16 22:43:00,66.0,58.0,-100.00,WNW,290,2.0,3.0,76,-99.99,,,-99.99,,2013-06-17 02:43:00,
2013-06-16 22:53:00,66.0,58.0,-100.00,NW,310,1.0,3.0,77,-99.99,,,-99.99,,2013-06-17 02:53:00,
2013-06-16 23:02:00,65.0,59.0,-100.00,WNW,285,2.0,3.0,79,-99.99,,,-99.99,,2013-06-17 03:02:00,
2013-06-16 23:12:00,65.0,59.0,-100.00,WNW,300,2.0,3.0,81,-99.99,,,-99.99,,2013-06-17 03:12:00,
2013-06-16 23:22:00,64.0,59.0,-100.00,West,270,2.0,2.0,82,-99.99,,,-99.99,,2013-06-17 03:22:00,
2013-06-16 23:33:00,64.0,59.0,-100.00,West,265,1.0,2.0,84,-99.99,,,-99.99,,2013-06-17 03:33:00,
2013-06-16 23:44:00,64.0,60.0,-100.00,West,260,1.0,2.0,86,-99.99,,,-99.99,,2013-06-17 03:44:00,
2013-06-16 23:53:00,64.0,60.0,-100.00,West,265,1.0,2.0,88,-99.99,,,-99.99,,2013-06-17 03:53:00,